User: anonymous   Login
Location: Beang
(6.6177°N, 10.9863°W)
Time: 19:31:55
(UTC+00:00)
Language:

MOS 1-B - Orbit

View from above orbital plane
View from above orbital plane
View from above satellite
View from above satellite

Ground track
Ground track

The orbit data is extracted from the following two-line orbital elements,

1 20478U 90013A   21169.55277957 -.00000152  00000-0 -77830-4 0  9999
2 20478  99.4272 179.7236 0006505  97.5461 262.6439 13.95533465517491
Epoch (UTC): 18 June 2021 13:16:00
Eccentricity: 0.0006505
inclination: 99.4272°
perigee height: 904 km
apogee height: 914 km
right ascension of ascending node: 179.7236°
argument of perigee: 97.5461°
revolutions per day: 13.95533465
mean anomaly at epoch: 262.6439°
orbit number at epoch: 51749

The dashed part of the orbit path shows where the satellite is in the earth's shadow,  

DLR